Hourly Data Report for June 23, 2021

TRENTON A
ONTARIO
Current Station Operator: DND

44°07'00.000" N
77°32'00.000" W
86.30 m
6158875
71621
YTR

Download Data

Hourly Data (June 2021)
Hourly Data Report for June 23, 2021
TIME
LST
Temp Definition
°C
Dew Point Definition
°C
Rel Hum Definition
%
Precip. Amount Definition
mm

Wind Dir Definition
10's deg

Wind Spd Definition
km/h
Visibility Definition
km
Stn Press Definition
kPa
Hmdx Definition


Wind Chill Definition


Weather Definition


00:00 10.8 3.6 61   33 11 24.1 100.53     Clear
01:00 10.7 4.0 63   34 8 24.1 100.56     Clear
02:00 9.8 4.4 69   31 5 24.1 100.62     Clear
03:00 8.9 4.8 75   35 9 24.1 100.64     Clear
04:00 8.7 5.2 79   35 11 24.1 100.73     Mainly Clear
05:00 8.7 5.6 81   32 8 24.1 100.82     Mainly Clear
06:00 10.7 6.6 76   30 4 24.1 100.93     Mainly Clear
07:00 13.1 7.1 67   24 8 24.1 101.00     Mainly Clear
08:00 14.9 7.7 62   22 11 24.1 101.05     Mainly Clear
09:00 15.3 7.3 59   24 17 24.1 101.10     Mainly Clear
10:00 16.9 6.6 51   23 18 24.1 101.13     Mainly Clear
11:00 17.8 7.3 50   23 21 24.1 101.14     Mainly Clear
12:00 18.1 8.7 54   24 24 24.1 101.15     Mainly Clear
13:00 18.6 9.2 54   24 21 24.1 101.15     Mainly Clear
14:00 18.8 9.0 53   23 24 24.1 101.13     Mainly Clear
15:00 19.8 8.9 49   23 22 24.1 101.10     Mainly Clear
16:00 20.0 9.0 49   23 21 24.1 101.11     Mainly Clear
17:00 19.8 9.9 53   22 18 24.1 101.09     Mainly Clear
18:00 20.3 8.0 45   22 15 24.1 101.11     Mainly Clear
19:00 19.2 7.4 46   22 13 24.1 101.14     Mainly Clear
20:00 16.8 9.1 60   19 8 24.1 101.18     Mainly Clear
21:00 15.4 10.1 71   18 5 24.1 101.24     Mainly Clear
22:00 13.9 9.7 76   15 4 24.1 101.26     Mainly Clear
23:00 14.2 9.4 73   22 4 24.1 101.30     Mainly Clear

Notes on Data Quality.

Legend

  • E = Estimated
  • M = Missing
  • NA = Not Available*
  • [empty] = Indicates an unobserved value
Date modified: